Time,TemperatureF,DewpointF,PressureIn,WindDirection,WindDirectionDegrees,WindSpeedMPH,WindSpeedGustMPH,Humidity,HourlyPrecipIn,Conditions,Clouds,dailyrainin,SoftwareType,DateUTC
2013-06-28 00:00:00,75.9,75.9,29.78,South,191,0.0,5.6,100,0.00,,SCT250,0.00,VWS V14.01,2013-06-28 04:00:00,
2013-06-28 00:01:00,75.9,75.9,29.78,South,191,0.0,0.0,100,0.00,,SCT250,0.00,VWS V14.01,2013-06-28 04:01:00,
2013-06-28 00:02:00,75.9,75.9,29.78,South,191,0.0,0.0,100,0.00,,SCT250,0.00,VWS V14.01,2013-06-28 04:02:00,
2013-06-28 00:03:00,75.9,75.9,29.78,South,191,5.2,6.6,100,0.00,,SCT250,0.00,VWS V14.01,2013-06-28 04:03:00,
2013-06-28 00:08:00,75.9,75.9,29.78,SW,234,3.7,4.7,100,0.00,,SCT250,0.00,VWS V14.01,2013-06-28 04:08:00,
2013-06-28 00:13:00,75.9,75.9,29.78,SW,216,5.2,6.6,100,0.00,,SCT250,0.00,VWS V14.01,2013-06-28 04:13:00,
2013-06-28 00:18:00,75.9,75.9,29.78,SSE,159,0.0,0.0,100,0.00,,SCT250,0.00,VWS V14.01,2013-06-28 04:18:00,
2013-06-28 00:24:00,76.1,76.1,29.78,SW,216,0.0,5.6,100,0.00,,SCT250,0.00,VWS V14.01,2013-06-28 04:24:00,
2013-06-28 00:29:00,76.3,76.3,29.78,SW,222,3.7,5.6,100,0.00,,SCT250,0.00,VWS V14.01,2013-06-28 04:29:00,
2013-06-28 00:34:00,76.3,76.3,29.78,SSW,210,5.2,6.6,100,0.00,,CLR,0.00,VWS V14.01,2013-06-28 04:34:00,
2013-06-28 00:39:00,76.5,76.5,29.75,SW,219,5.9,7.5,100,0.00,,CLR,0.00,VWS V14.01,2013-06-28 04:39:00,
2013-06-28 00:44:00,76.6,76.7,29.75,WSW,258,3.7,4.7,100,0.00,,CLR,0.00,VWS V14.01,2013-06-28 04:44:00,
2013-06-28 00:49:00,77.0,77.0,29.75,WSW,258,0.0,0.0,100,0.00,,CLR,0.00,VWS V14.01,2013-06-28 04:49:00,
2013-06-28 00:54:00,77.0,77.0,29.78,West,265,0.0,0.0,100,0.00,,CLR,0.00,VWS V14.01,2013-06-28 04:54:00,
2013-06-28 00:59:00,77.0,77.0,29.78,West,265,0.0,0.0,100,0.00,,CLR,0.00,VWS V14.01,2013-06-28 04:59:00,
2013-06-28 01:05:00,77.4,77.4,29.78,West,278,0.0,0.0,100,0.00,,CLR,0.00,VWS V14.01,2013-06-28 05:05:00,
2013-06-28 01:10:00,77.9,77.5,29.78,West,271,5.2,8.5,99,0.00,,CLR,0.00,VWS V14.01,2013-06-28 05:10:00,
2013-06-28 01:15:00,78.8,76.2,29.78,ESE,121,4.4,8.5,92,0.00,,CLR,0.00,VWS V14.01,2013-06-28 05:15:00,
2013-06-28 01:20:00,79.0,75.8,29.78,WNW,300,0.0,0.0,90,0.00,,CLR,0.00,VWS V14.01,2013-06-28 05:20:00,
2013-06-28 01:25:00,79.2,75.4,29.78,NNW,335,4.4,6.6,88,0.00,,CLR,0.00,VWS V14.01,2013-06-28 05:25:00,
2013-06-28 01:31:00,79.5,75.2,29.78,NW,326,4.4,5.6,87,0.00,,CLR,0.00,VWS V14.01,2013-06-28 05:31:00,
2013-06-28 01:36:00,79.2,73.7,29.78,West,278,0.0,8.5,83,0.00,,CLR,0.00,VWS V14.01,2013-06-28 05:36:00,
2013-06-28 01:41:00,79.2,74.3,29.78,WSW,253,5.2,6.6,85,0.00,,CLR,0.00,VWS V14.01,2013-06-28 05:41:00,
2013-06-28 01:46:00,79.7,73.6,29.78,WNW,297,5.9,12.2,82,0.00,,CLR,0.00,VWS V14.01,2013-06-28 05:46:00,
2013-06-28 01:51:00,79.2,73.1,29.78,NW,324,13.3,16.9,82,0.00,,CLR,0.00,VWS V14.01,2013-06-28 05:51:00,
2013-06-28 01:57:00,79.3,72.6,29.78,NW,309,5.9,12.2,80,0.00,,CLR,0.00,VWS V14.01,2013-06-28 05:57:00,
2013-06-28 02:02:00,79.0,72.2,29.78,WNW,297,8.9,13.2,80,0.00,,CLR,0.00,VWS V14.01,2013-06-28 06:02:00,
2013-06-28 02:08:00,78.6,73.1,29.78,West,271,9.6,12.2,83,0.00,,CLR,0.00,VWS V14.01,2013-06-28 06:08:00,
2013-06-28 02:16:00,78.8,72.7,29.78,West,266,9.6,19.3,82,0.00,,CLR,0.00,VWS V14.01,2013-06-28 06:16:00,
2013-06-28 02:22:00,78.1,72.6,29.78,WSW,248,6.6,11.3,83,0.00,,CLR,0.00,VWS V14.01,2013-06-28 06:22:00,
2013-06-28 02:27:00,79.0,71.6,29.78,SW,227,12.5,16.9,78,0.00,,CLR,0.00,VWS V14.01,2013-06-28 06:27:00,
2013-06-28 02:32:00,79.7,71.0,29.78,WNW,291,6.6,16.9,75,0.00,,FEW055,0.00,VWS V14.01,2013-06-28 06:32:00,
2013-06-28 02:37:00,79.2,70.5,29.78,WNW,291,9.6,13.2,75,0.00,,FEW055,0.00,VWS V14.01,2013-06-28 06:37:00,
2013-06-28 02:42:00,78.1,72.0,29.78,WNW,303,8.1,23.0,82,0.00,,FEW055,0.00,VWS V14.01,2013-06-28 06:42:00,
2013-06-28 02:48:00,78.6,71.9,29.78,West,277,5.9,13.2,80,0.00,,FEW055,0.00,VWS V14.01,2013-06-28 06:48:00,
2013-06-28 02:53:00,78.4,70.4,29.78,West,276,5.2,22.1,76,0.00,,FEW055,0.00,VWS V14.01,2013-06-28 06:53:00,
2013-06-28 02:58:00,77.5,70.8,29.78,WSW,248,6.6,16.0,80,0.00,,FEW055,0.00,VWS V14.01,2013-06-28 06:58:00,
2013-06-28 03:03:00,77.7,71.0,29.78,SW,225,5.2,6.6,80,0.00,,FEW055,0.00,VWS V14.01,2013-06-28 07:03:00,
2013-06-28 03:08:00,78.3,70.3,29.78,West,276,6.6,8.5,76,0.00,,FEW055,0.00,VWS V14.01,2013-06-28 07:08:00,
2013-06-28 03:13:00,77.7,70.4,29.75,WNW,291,6.6,8.5,78,0.00,,FEW055,0.00,VWS V14.01,2013-06-28 07:13:00,
2013-06-28 03:18:00,77.5,70.8,29.75,WNW,295,4.4,12.2,80,0.00,,FEW055,0.00,VWS V14.01,2013-06-28 07:18:00,
2013-06-28 03:24:00,77.7,70.4,29.75,NW,305,8.9,13.2,78,0.00,,FEW055,0.00,VWS V14.01,2013-06-28 07:24:00,
2013-06-28 03:29:00,77.4,70.0,29.75,NNW,328,3.7,4.7,78,0.00,,FEW055,0.00,VWS V14.01,2013-06-28 07:29:00,
2013-06-28 03:34:00,77.2,71.1,29.75,NNW,335,5.2,6.6,82,0.00,,FEW055,0.00,VWS V14.01,2013-06-28 07:34:00,
2013-06-28 03:39:00,77.4,70.7,29.75,West,280,4.4,5.6,80,0.00,,FEW055,0.00,VWS V14.01,2013-06-28 07:39:00,
2013-06-28 03:44:00,77.2,70.5,29.75,West,259,3.7,13.2,80,0.00,,FEW055,0.00,VWS V14.01,2013-06-28 07:44:00,
2013-06-28 03:49:00,76.8,71.4,29.75,NW,304,9.6,14.1,83,0.00,,FEW055,0.00,VWS V14.01,2013-06-28 07:49:00,
2013-06-28 03:55:00,77.4,70.7,29.75,NW,306,5.2,6.6,80,0.00,,FEW055,0.00,VWS V14.01,2013-06-28 07:55:00,
2013-06-28 04:00:00,76.8,71.4,29.75,WNW,297,0.0,6.6,83,0.00,,FEW055,0.00,VWS V14.01,2013-06-28 08:00:00,
2013-06-28 04:05:00,77.0,70.3,29.75,WNW,287,9.6,12.2,80,0.00,,FEW055,0.00,VWS V14.01,2013-06-28 08:05:00,
2013-06-28 04:10:00,76.5,71.6,29.75,WNW,291,6.6,11.3,85,0.00,,FEW055,0.00,VWS V14.01,2013-06-28 08:10:00,
2013-06-28 04:15:00,76.8,71.4,29.75,West,269,3.7,8.5,83,0.00,,FEW055,0.00,VWS V14.01,2013-06-28 08:15:00,
2013-06-28 04:21:00,76.5,71.0,29.75,NW,309,4.4,6.6,83,0.00,,FEW055,0.00,VWS V14.01,2013-06-28 08:21:00,
2013-06-28 04:26:00,76.1,71.8,29.75,WNW,299,5.2,7.5,87,0.00,,FEW055,0.00,VWS V14.01,2013-06-28 08:26:00,
2013-06-28 04:31:00,76.1,71.8,29.75,West,263,3.7,4.7,87,0.00,,FEW055,0.00,VWS V14.01,2013-06-28 08:31:00,
2013-06-28 04:36:00,76.1,71.8,29.75,WNW,289,4.4,5.6,87,0.00,,SCT060,0.00,VWS V14.01,2013-06-28 08:36:00,
2013-06-28 04:41:00,75.6,70.7,29.75,West,267,8.1,11.3,85,0.00,,SCT060,0.00,VWS V14.01,2013-06-28 08:41:00,
2013-06-28 04:46:00,75.2,72.1,29.75,West,267,5.9,20.2,90,0.00,,SCT060,0.00,VWS V14.01,2013-06-28 08:46:00,
2013-06-28 04:52:00,75.0,71.4,29.75,NW,314,0.0,8.5,88,0.00,,SCT060,0.00,VWS V14.01,2013-06-28 08:52:00,
2013-06-28 04:57:00,75.2,72.7,29.75,West,271,5.9,7.5,92,0.00,,SCT060,0.00,VWS V14.01,2013-06-28 08:57:00,
2013-06-28 05:02:00,75.2,71.0,29.75,WSW,239,10.3,13.2,87,0.00,,SCT060,0.00,VWS V14.01,2013-06-28 09:02:00,
2013-06-28 05:07:00,74.7,72.1,29.75,WNW,297,0.0,8.5,92,0.00,,SCT060,0.00,VWS V14.01,2013-06-28 09:07:00,
2013-06-28 05:13:00,74.5,71.9,29.75,WNW,293,4.4,12.2,92,0.00,,SCT060,0.00,VWS V14.01,2013-06-28 09:13:00,
2013-06-28 05:18:00,74.3,72.8,29.75,WSW,258,0.0,5.6,95,0.00,,SCT060,0.00,VWS V14.01,2013-06-28 09:18:00,
2013-06-28 05:23:00,74.3,72.3,29.75,NW,308,3.7,8.5,94,0.00,,SCT060,0.00,VWS V14.01,2013-06-28 09:23:00,
2013-06-28 05:28:00,74.7,72.7,29.75,NW,326,6.6,8.5,94,0.00,,SCT060,0.00,VWS V14.01,2013-06-28 09:28:00,
2013-06-28 05:33:00,74.5,72.5,29.75,South,191,0.0,7.5,94,0.00,,SCT060,0.00,VWS V14.01,2013-06-28 09:33:00,
2013-06-28 05:39:00,74.5,71.9,29.75,West,280,0.0,11.3,92,0.00,,SCT065,0.00,VWS V14.01,2013-06-28 09:39:00,
2013-06-28 05:44:00,74.1,71.6,29.72,WSW,254,6.6,8.5,92,0.00,,SCT065,0.00,VWS V14.01,2013-06-28 09:44:00,
2013-06-28 05:49:00,74.1,72.1,29.72,NW,315,5.9,7.5,94,0.00,,SCT065,0.00,VWS V14.01,2013-06-28 09:49:00,
2013-06-28 05:54:00,73.8,72.8,29.72,West,270,6.6,8.5,97,0.00,,SCT065,0.00,VWS V14.01,2013-06-28 09:54:00,
2013-06-28 05:59:00,74.3,72.3,29.72,NNW,330,5.9,7.5,94,0.00,,SCT065,0.00,VWS V14.01,2013-06-28 09:59:00,
2013-06-28 06:05:00,74.3,72.8,29.72,West,281,5.2,7.5,95,0.00,,SCT065,0.00,VWS V14.01,2013-06-28 10:05:00,
2013-06-28 06:10:00,74.3,71.8,29.75,West,266,3.7,12.2,92,0.00,,SCT065,0.00,VWS V14.01,2013-06-28 10:10:00,
2013-06-28 06:15:00,74.1,71.6,29.75,NNE,14,0.0,0.0,92,0.00,,SCT065,0.00,VWS V14.01,2013-06-28 10:15:00,
2013-06-28 06:20:00,73.9,73.0,29.75,WNW,293,8.1,10.3,97,0.00,,SCT065,0.00,VWS V14.01,2013-06-28 10:20:00,
2013-06-28 06:25:00,73.6,72.1,29.75,WNW,284,4.4,12.2,95,0.00,,SCT065,0.00,VWS V14.01,2013-06-28 10:25:00,
2013-06-28 06:30:00,73.6,73.2,29.75,WSW,246,0.0,0.0,99,0.00,,SCT065,0.00,VWS V14.01,2013-06-28 10:30:00,
2013-06-28 06:35:00,73.2,72.3,29.75,WSW,246,5.2,10.3,97,0.00,,SCT065,0.00,VWS V14.01,2013-06-28 10:35:00,
2013-06-28 06:40:00,73.2,73.2,29.75,WNW,287,7.4,11.3,100,0.00,,SCT065,0.00,VWS V14.01,2013-06-28 10:40:00,
2013-06-28 06:46:00,73.6,72.1,29.75,WNW,286,0.0,0.0,95,0.00,,SCT065,0.00,VWS V14.01,2013-06-28 10:46:00,
2013-06-28 06:51:00,73.4,73.4,29.75,West,268,4.4,6.6,100,0.00,,SCT065,0.00,VWS V14.01,2013-06-28 10:51:00,
2013-06-28 06:56:00,73.6,72.1,29.75,WNW,291,8.9,11.3,95,0.00,,SCT065,0.00,VWS V14.01,2013-06-28 10:56:00,
2013-06-28 07:01:00,73.4,73.0,29.75,SW,229,0.0,0.0,99,0.00,,SCT065,0.00,VWS V14.01,2013-06-28 11:01:00,
2013-06-28 07:06:00,73.6,73.2,29.75,West,259,4.4,5.6,99,0.00,,SCT065,0.00,VWS V14.01,2013-06-28 11:06:00,
2013-06-28 07:12:00,73.8,73.3,29.75,WNW,286,6.6,8.5,99,0.00,,SCT065,0.00,VWS V14.01,2013-06-28 11:12:00,
2013-06-28 07:17:00,74.3,72.8,29.75,West,281,5.9,10.3,95,0.00,,SCT065,0.00,VWS V14.01,2013-06-28 11:17:00,
2013-06-28 07:22:00,74.1,72.7,29.75,WSW,245,3.7,4.7,95,0.00,,SCT065,0.00,VWS V14.01,2013-06-28 11:22:00,
2013-06-28 07:27:00,74.8,72.3,29.75,WNW,291,5.9,7.5,92,0.00,,SCT065,0.00,VWS V14.01,2013-06-28 11:27:00,
2013-06-28 07:33:00,75.0,71.9,29.75,NW,316,6.6,13.2,90,0.00,,SCT065,0.00,VWS V14.01,2013-06-28 11:33:00,
2013-06-28 07:38:00,75.6,71.9,29.75,West,281,8.1,13.2,88,0.00,,SCT300,0.00,VWS V14.01,2013-06-28 11:38:00,
2013-06-28 07:43:00,75.2,72.1,29.75,WNW,303,9.6,12.2,90,0.00,,SCT300,0.00,VWS V14.01,2013-06-28 11:43:00,
2013-06-28 07:48:00,75.4,71.7,29.75,NW,320,6.6,16.0,88,0.00,,SCT300,0.00,VWS V14.01,2013-06-28 11:48:00,
2013-06-28 07:53:00,75.0,71.9,29.75,NW,321,8.9,11.3,90,0.00,,SCT300,0.00,VWS V14.01,2013-06-28 11:53:00,
2013-06-28 07:58:00,75.7,71.5,29.75,North,357,6.6,16.9,87,0.00,,SCT300,0.00,VWS V14.01,2013-06-28 11:58:00,
2013-06-28 08:03:00,75.0,71.9,29.75,West,280,8.9,16.9,90,0.00,,SCT300,0.00,VWS V14.01,2013-06-28 12:03:00,
2013-06-28 08:08:00,76.3,70.8,29.75,WSW,254,10.3,13.2,83,0.00,,SCT300,0.00,VWS V14.01,2013-06-28 12:08:00,
2013-06-28 08:14:00,75.9,70.5,29.75,NW,310,6.6,18.3,83,0.00,,SCT300,0.00,VWS V14.01,2013-06-28 12:14:00,
2013-06-28 08:19:00,76.3,72.0,29.75,WSW,258,8.1,12.2,87,0.00,,SCT300,0.00,VWS V14.01,2013-06-28 12:19:00,
2013-06-28 08:24:00,77.7,71.0,29.75,WNW,284,12.5,16.0,80,0.00,,SCT300,0.00,VWS V14.01,2013-06-28 12:24:00,
2013-06-28 08:29:00,78.4,70.4,29.75,WNW,288,12.5,16.0,76,0.00,,SCT300,0.00,VWS V14.01,2013-06-28 12:29:00,
2013-06-28 08:34:00,78.4,69.8,29.75,NW,305,14.4,18.3,75,0.00,,SCT300,0.00,VWS V14.01,2013-06-28 12:34:00,
2013-06-28 08:35:00,78.4,69.8,29.75,NNW,343,13.7,17.4,75,0.00,,SCT300,0.00,VWS V14.01,2013-06-28 12:35:00,
2013-06-28 08:41:00,78.4,69.8,29.75,WNW,282,10.3,17.4,75,0.00,,SCT300,0.00,VWS V14.01,2013-06-28 12:41:00,
2013-06-28 08:46:00,78.3,70.9,29.75,West,279,5.2,16.9,78,0.00,,SCT300,0.00,VWS V14.01,2013-06-28 12:46:00,
2013-06-28 08:51:00,78.6,69.3,29.75,WNW,292,13.3,18.3,73,0.00,,SCT300,0.00,VWS V14.01,2013-06-28 12:51:00,
2013-06-28 08:56:00,78.3,70.3,29.75,WNW,297,10.3,21.1,76,0.00,,SCT300,0.00,VWS V14.01,2013-06-28 12:56:00,
2013-06-28 09:01:00,79.7,70.3,29.75,West,260,8.9,11.3,73,0.00,,SCT300,0.00,VWS V14.01,2013-06-28 13:01:00,
2013-06-28 09:07:00,79.0,70.3,29.75,WSW,256,5.9,7.5,75,0.00,,SCT300,0.00,VWS V14.01,2013-06-28 13:07:00,
2013-06-28 09:12:00,79.5,69.5,29.75,West,269,13.3,21.1,71,0.00,,SCT300,0.00,VWS V14.01,2013-06-28 13:12:00,
2013-06-28 09:17:00,78.4,69.8,29.75,WNW,303,16.6,22.1,75,0.00,,SCT300,0.00,VWS V14.01,2013-06-28 13:17:00,
2013-06-28 09:22:00,78.6,69.3,29.75,NW,323,9.6,13.2,73,0.00,,SCT300,0.00,VWS V14.01,2013-06-28 13:22:00,
2013-06-28 09:27:00,79.3,70.0,29.75,NW,314,8.1,10.3,73,0.00,,SCT300,0.00,VWS V14.01,2013-06-28 13:27:00,
2013-06-28 09:33:00,79.0,69.6,29.75,NW,312,15.1,22.1,73,0.00,,SCT300,0.00,VWS V14.01,2013-06-28 13:33:00,
2013-06-28 09:38:00,79.3,70.0,29.75,WNW,285,8.9,17.4,73,0.00,,SCT300,0.00,VWS V14.01,2013-06-28 13:38:00,
2013-06-28 09:43:00,79.5,68.0,29.75,WSW,258,10.3,13.2,68,0.00,,SCT300,0.00,VWS V14.01,2013-06-28 13:43:00,
2013-06-28 09:48:00,79.5,69.5,29.75,West,261,13.7,17.4,71,0.00,,SCT300,0.00,VWS V14.01,2013-06-28 13:48:00,
2013-06-28 09:53:00,80.2,69.4,29.75,WNW,303,5.9,13.2,70,0.00,,SCT300,0.00,VWS V14.01,2013-06-28 13:53:00,
2013-06-28 09:58:00,80.1,69.3,29.72,West,262,13.3,18.3,70,0.00,,SCT300,0.00,VWS V14.01,2013-06-28 13:58:00,
2013-06-28 10:04:00,80.8,69.2,29.72,NNW,334,8.9,17.4,68,0.00,,SCT300,0.00,VWS V14.01,2013-06-28 14:04:00,
2013-06-28 10:09:00,80.6,68.3,29.75,WNW,300,10.3,17.4,66,0.00,,SCT300,0.00,VWS V14.01,2013-06-28 14:09:00,
2013-06-28 10:14:00,80.4,68.9,29.75,WNW,301,8.9,16.0,68,0.00,,SCT300,0.00,VWS V14.01,2013-06-28 14:14:00,
2013-06-28 10:19:00,81.0,67.1,29.75,NW,305,17.3,22.1,63,0.00,,SCT300,0.00,VWS V14.01,2013-06-28 14:19:00,
2013-06-28 10:24:00,81.1,69.6,29.75,WNW,300,10.3,16.9,68,0.00,,SCT300,0.00,VWS V14.01,2013-06-28 14:24:00,
2013-06-28 10:30:00,81.3,68.3,29.75,NNW,335,5.2,8.5,65,0.00,,SCT300,0.00,VWS V14.01,2013-06-28 14:30:00,
2013-06-28 10:35:00,81.1,68.8,29.75,WNW,301,6.6,8.5,66,0.00,,SCT300,0.00,VWS V14.01,2013-06-28 14:35:00,
2013-06-28 10:40:00,81.5,69.2,29.75,NW,322,5.9,8.5,66,0.00,,SCT300,0.00,VWS V14.01,2013-06-28 14:40:00,
2013-06-28 10:45:00,81.1,67.3,29.75,NW,318,13.3,16.9,63,0.00,,SCT300,0.00,VWS V14.01,2013-06-28 14:45:00,
2013-06-28 10:50:00,81.9,68.0,29.75,WNW,300,4.4,8.5,63,0.00,,SCT300,0.00,VWS V14.01,2013-06-28 14:50:00,
2013-06-28 10:56:00,83.1,66.7,29.72,North,0,6.6,11.3,58,0.00,,SCT300,0.00,VWS V14.01,2013-06-28 14:56:00,
2013-06-28 11:01:00,82.4,66.1,29.72,WNW,283,6.6,16.0,58,0.00,,SCT300,0.00,VWS V14.01,2013-06-28 15:01:00,
2013-06-28 11:06:00,82.6,66.2,29.72,West,265,7.4,20.2,58,0.00,,SCT300,0.00,VWS V14.01,2013-06-28 15:06:00,
2013-06-28 11:11:00,83.5,65.3,29.72,NW,307,20.3,25.8,54,0.00,,SCT300,0.00,VWS V14.01,2013-06-28 15:11:00,
2013-06-28 11:16:00,83.1,66.7,29.72,WNW,287,9.6,12.2,58,0.00,,SCT300,0.00,VWS V14.01,2013-06-28 15:16:00,
2013-06-28 11:21:00,83.7,66.4,29.72,WNW,299,9.6,12.2,56,0.00,,SCT300,0.00,VWS V14.01,2013-06-28 15:21:00,
2013-06-28 11:26:00,84.4,65.2,29.72,West,274,13.3,16.9,53,0.00,,SCT300,0.00,VWS V14.01,2013-06-28 15:26:00,
2013-06-28 11:31:00,83.5,64.4,29.72,West,273,9.6,12.2,53,0.00,,SCT300,0.00,VWS V14.01,2013-06-28 15:31:00,
2013-06-28 11:37:00,83.5,65.3,29.72,West,270,4.4,16.9,54,0.00,,SCT300,0.00,VWS V14.01,2013-06-28 15:37:00,
2013-06-28 11:42:00,84.2,64.1,29.75,NW,310,17.3,22.1,51,0.00,,SCT300,0.00,VWS V14.01,2013-06-28 15:42:00,
2013-06-28 11:47:00,83.1,65.0,29.75,WSW,247,9.6,12.2,54,0.00,,SCT300,0.00,VWS V14.01,2013-06-28 15:47:00,
2013-06-28 11:52:00,84.0,64.9,29.75,NW,318,6.6,8.5,53,0.00,,SCT300,0.00,VWS V14.01,2013-06-28 15:52:00,
2013-06-28 11:57:00,84.4,63.3,29.72,WNW,302,12.5,21.1,49,0.00,,SCT300,0.00,VWS V14.01,2013-06-28 15:57:00,
2013-06-28 12:03:00,82.9,63.0,29.72,NW,319,13.3,17.4,51,0.00,,SCT300,0.00,VWS V14.01,2013-06-28 16:03:00,
2013-06-28 12:08:00,83.8,63.8,29.72,NNW,341,5.9,7.5,51,0.00,,SCT300,0.00,VWS V14.01,2013-06-28 16:08:00,
2013-06-28 12:13:00,84.2,64.1,29.72,West,280,16.6,21.1,51,0.00,,SCT300,0.00,VWS V14.01,2013-06-28 16:13:00,
2013-06-28 12:18:00,84.9,63.8,29.72,WNW,294,6.6,8.5,49,0.00,,SCT300,0.00,VWS V14.01,2013-06-28 16:18:00,
2013-06-28 12:23:00,85.3,64.2,29.72,NW,317,15.9,20.2,49,0.00,,SCT300,0.00,VWS V14.01,2013-06-28 16:23:00,
2013-06-28 12:28:00,85.8,64.6,29.72,West,267,5.9,19.3,49,0.00,,SCT300,0.00,VWS V14.01,2013-06-28 16:28:00,
2013-06-28 12:33:00,84.9,63.8,29.72,North,357,10.3,16.9,49,0.00,,SCT300,0.00,VWS V14.01,2013-06-28 16:33:00,
2013-06-28 12:38:00,84.0,64.0,29.72,West,279,13.7,17.4,51,0.00,,SCT300,0.00,VWS V14.01,2013-06-28 16:38:00,
2013-06-28 12:44:00,83.8,63.8,29.72,NW,310,8.9,17.4,51,0.00,,SCT300,0.00,VWS V14.01,2013-06-28 16:44:00,
2013-06-28 12:49:00,84.6,66.3,29.72,NNW,337,9.6,12.2,54,0.00,,SCT300,0.00,VWS V14.01,2013-06-28 16:49:00,
2013-06-28 12:54:00,85.5,64.3,29.72,West,267,8.9,18.3,49,0.00,,SCT300,0.00,VWS V14.01,2013-06-28 16:54:00,
2013-06-28 12:59:00,84.6,63.5,29.72,NNW,334,21.8,27.7,49,0.00,,SCT300,0.00,VWS V14.01,2013-06-28 16:59:00,
2013-06-28 13:04:00,85.6,64.5,29.72,NW,313,11.1,23.0,49,0.00,,SCT300,0.00,VWS V14.01,2013-06-28 17:04:00,
2013-06-28 13:09:00,86.0,63.8,29.72,WNW,285,13.7,17.4,48,0.00,,SCT300,0.00,VWS V14.01,2013-06-28 17:09:00,
2013-06-28 13:14:00,86.4,64.1,29.72,WSW,244,6.6,10.3,48,0.00,,SCT300,0.00,VWS V14.01,2013-06-28 17:14:00,
2013-06-28 13:20:00,87.1,63.8,29.72,West,267,14.4,18.3,46,0.00,,SCT300,0.00,VWS V14.01,2013-06-28 17:20:00,
2013-06-28 13:25:00,85.8,63.6,29.72,WNW,284,11.1,14.1,48,0.00,,SCT300,0.00,VWS V14.01,2013-06-28 17:25:00,
2013-06-28 13:30:00,86.0,63.8,29.72,WNW,298,4.4,17.4,48,0.00,,SCT300,0.00,VWS V14.01,2013-06-28 17:30:00,
2013-06-28 13:35:00,86.4,62.0,29.72,NNW,330,9.6,16.9,44,0.00,,SCT300,0.00,VWS V14.01,2013-06-28 17:35:00,
2013-06-28 13:40:00,86.0,63.8,29.72,WNW,287,5.2,12.2,48,0.00,,SCT300,0.00,VWS V14.01,2013-06-28 17:40:00,
2013-06-28 13:45:00,86.5,62.2,29.72,NW,310,9.6,17.4,44,0.00,,SCT300,0.00,VWS V14.01,2013-06-28 17:45:00,
2013-06-28 13:50:00,85.6,63.5,29.72,SW,230,10.3,22.1,48,0.00,,SCT300,0.00,VWS V14.01,2013-06-28 17:50:00,
2013-06-28 13:55:00,86.7,60.1,29.72,WNW,291,9.6,23.0,41,0.00,,SCT300,0.00,VWS V14.01,2013-06-28 17:55:00,
2013-06-28 14:00:00,86.0,59.5,29.72,WNW,283,8.9,11.3,41,0.00,,SCT300,0.00,VWS V14.01,2013-06-28 18:00:00,
2013-06-28 14:05:00,86.2,58.4,29.72,West,281,11.1,17.4,39,0.00,,SCT300,0.00,VWS V14.01,2013-06-28 18:05:00,
2013-06-28 14:10:00,86.5,58.7,29.72,West,265,5.2,16.0,39,0.00,,SCT300,0.00,VWS V14.01,2013-06-28 18:10:00,
2013-06-28 14:16:00,86.5,57.5,29.72,WSW,258,9.6,16.9,37,0.00,,SCT300,0.00,VWS V14.01,2013-06-28 18:16:00,
2013-06-28 14:21:00,87.4,58.3,29.72,NW,316,14.4,18.3,37,0.00,,SCT300,0.00,VWS V14.01,2013-06-28 18:21:00,
2013-06-28 14:26:00,88.0,58.8,29.72,NNW,329,5.9,23.0,37,0.00,,SCT300,0.00,VWS V14.01,2013-06-28 18:26:00,
2013-06-28 14:31:00,88.2,60.2,29.72,WNW,296,13.3,23.0,39,0.00,,SCT300,0.00,VWS V14.01,2013-06-28 18:31:00,
2013-06-28 14:37:00,86.2,57.2,29.72,WSW,254,8.9,18.3,37,0.00,,SCT070,0.00,VWS V14.01,2013-06-28 18:37:00,
2013-06-28 14:42:00,86.5,62.2,29.72,NNE,16,8.9,13.2,44,0.00,,SCT070,0.00,VWS V14.01,2013-06-28 18:42:00,
2013-06-28 14:47:00,86.9,59.1,29.72,NW,322,17.3,22.1,39,0.00,,SCT070,0.00,VWS V14.01,2013-06-28 18:47:00,
2013-06-28 14:52:00,87.3,56.8,29.72,WNW,297,13.3,19.3,36,0.00,,SCT070,0.00,VWS V14.01,2013-06-28 18:52:00,
2013-06-28 14:57:00,87.3,59.4,29.69,West,280,5.2,8.5,39,0.00,,SCT070,0.00,VWS V14.01,2013-06-28 18:57:00,
2013-06-28 15:02:00,87.1,58.0,29.69,West,279,11.8,16.0,37,0.00,,SCT070,0.00,VWS V14.01,2013-06-28 19:02:00,
2013-06-28 15:07:00,87.4,58.3,29.69,WNW,303,17.3,22.1,37,0.00,,SCT070,0.00,VWS V14.01,2013-06-28 19:07:00,
2013-06-28 15:12:00,87.6,58.5,29.69,West,270,9.6,12.2,37,0.00,,SCT070,0.00,VWS V14.01,2013-06-28 19:12:00,
2013-06-28 15:17:00,87.4,58.3,29.69,WNW,283,9.6,20.2,37,0.00,,SCT070,0.00,VWS V14.01,2013-06-28 19:17:00,
2013-06-28 15:22:00,88.0,58.8,29.69,WNW,282,8.9,11.3,37,0.00,,SCT070,0.00,VWS V14.01,2013-06-28 19:22:00,
2013-06-28 15:27:00,86.7,57.7,29.69,WNW,291,8.9,18.3,37,0.00,,SCT070,0.00,VWS V14.01,2013-06-28 19:27:00,
2013-06-28 15:33:00,87.6,60.9,29.69,WNW,289,9.6,12.2,41,0.00,,SCT070,0.00,VWS V14.01,2013-06-28 19:33:00,
2013-06-28 15:38:00,88.5,59.2,29.69,NW,324,10.3,17.4,37,0.00,,SCT110,0.00,VWS V14.01,2013-06-28 19:38:00,
2013-06-28 15:43:00,88.9,60.8,29.69,South,186,4.4,10.3,39,0.00,,SCT110,0.00,VWS V14.01,2013-06-28 19:43:00,
2013-06-28 15:48:00,87.8,57.3,29.69,WSW,238,14.4,18.3,36,0.00,,SCT110,0.00,VWS V14.01,2013-06-28 19:48:00,
2013-06-28 15:54:00,88.2,58.9,29.69,WNW,303,21.8,27.7,37,0.00,,SCT110,0.00,VWS V14.01,2013-06-28 19:54:00,
2013-06-28 15:59:00,87.6,59.7,29.66,WNW,299,5.9,8.5,39,0.00,,SCT110,0.00,VWS V14.01,2013-06-28 19:59:00,
2013-06-28 16:04:00,88.3,61.5,29.66,West,274,4.4,8.5,41,0.00,,SCT110,0.00,VWS V14.01,2013-06-28 20:04:00,
2013-06-28 16:09:00,88.3,57.8,29.66,WNW,289,8.9,11.3,36,0.00,,SCT110,0.00,VWS V14.01,2013-06-28 20:09:00,
2013-06-28 16:14:00,87.8,61.0,29.66,West,276,4.4,6.6,41,0.00,,SCT110,0.00,VWS V14.01,2013-06-28 20:14:00,
2013-06-28 16:19:00,88.7,59.4,29.66,West,280,5.2,6.6,37,0.00,,SCT110,0.00,VWS V14.01,2013-06-28 20:19:00,
2013-06-28 16:24:00,88.9,60.8,29.66,West,265,0.0,20.2,39,0.00,,SCT110,0.00,VWS V14.01,2013-06-28 20:24:00,
2013-06-28 16:30:00,88.5,60.5,29.66,NW,306,8.9,16.9,39,0.00,,SCT110,0.00,VWS V14.01,2013-06-28 20:30:00,
2013-06-28 16:35:00,89.1,59.7,29.66,West,276,8.9,17.4,37,0.00,,SCT110,0.00,VWS V14.01,2013-06-28 20:35:00,
2013-06-28 16:40:00,88.9,58.3,29.66,WNW,298,13.3,21.1,36,0.00,,BKN250,0.00,VWS V14.01,2013-06-28 20:40:00,
2013-06-28 16:45:00,87.6,58.5,29.66,NW,311,9.6,12.2,37,0.00,,BKN250,0.00,VWS V14.01,2013-06-28 20:45:00,
2013-06-28 16:50:00,87.3,59.4,29.66,NNW,328,19.6,24.9,39,0.00,,BKN250,0.00,VWS V14.01,2013-06-28 20:50:00,
2013-06-28 16:55:00,85.6,60.3,29.66,NNE,12,9.6,16.9,42,0.00,,BKN250,0.00,VWS V14.01,2013-06-28 20:55:00,
2013-06-28 17:01:00,83.5,62.5,29.66,NNW,336,8.9,13.2,49,0.00,,BKN250,0.00,VWS V14.01,2013-06-28 21:01:00,
2013-06-28 17:06:00,81.9,62.0,29.66,NNW,338,5.9,7.5,51,0.00,,BKN250,0.00,VWS V14.01,2013-06-28 21:06:00,
2013-06-28 17:11:00,81.5,62.6,29.66,West,271,5.9,12.2,53,0.00,,BKN250,0.00,VWS V14.01,2013-06-28 21:11:00,
2013-06-28 17:16:00,83.1,64.1,29.66,North,357,5.2,11.3,53,0.00,,BKN250,0.00,VWS V14.01,2013-06-28 21:16:00,
2013-06-28 17:21:00,84.7,64.6,29.66,NW,311,17.3,22.1,51,0.00,,BKN250,0.00,VWS V14.01,2013-06-28 21:21:00,
2013-06-28 17:26:00,85.8,64.6,29.66,North,0,8.1,11.3,49,0.00,,BKN250,0.00,VWS V14.01,2013-06-28 21:26:00,
2013-06-28 17:32:00,86.7,65.5,29.66,WNW,302,9.6,12.2,49,0.00,,BKN250,0.00,VWS V14.01,2013-06-28 21:32:00,
2013-06-28 17:37:00,86.7,57.7,29.66,West,275,21.8,27.7,37,0.00,,BKN250,0.00,VWS V14.01,2013-06-28 21:37:00,
2013-06-28 17:42:00,86.7,57.7,29.66,WSW,256,27.7,35.2,37,0.00,,BKN250,0.00,VWS V14.01,2013-06-28 21:42:00,
2013-06-28 17:47:00,87.1,58.0,29.66,NNE,21,12.5,16.0,37,0.00,,BKN250,0.00,VWS V14.01,2013-06-28 21:47:00,
2013-06-28 17:53:00,86.0,57.0,29.66,WNW,286,8.9,11.3,37,0.00,,BKN250,0.00,VWS V14.01,2013-06-28 21:53:00,
2013-06-28 17:58:00,86.0,58.3,29.66,NNW,332,15.1,19.3,39,0.00,,BKN250,0.00,VWS V14.01,2013-06-28 21:58:00,
2013-06-28 18:03:00,86.2,57.2,29.66,West,272,10.3,18.3,37,0.00,,BKN250,0.00,VWS V14.01,2013-06-28 22:03:00,
2013-06-28 18:08:00,86.0,57.0,29.66,NW,309,13.7,17.4,37,0.00,,BKN250,0.00,VWS V14.01,2013-06-28 22:08:00,
2013-06-28 18:13:00,86.5,57.5,29.63,NW,325,10.3,18.3,37,0.00,,BKN250,0.00,VWS V14.01,2013-06-28 22:13:00,
2013-06-28 18:19:00,87.1,56.7,29.63,WNW,298,18.1,27.7,36,0.00,,BKN250,0.00,VWS V14.01,2013-06-28 22:19:00,
2013-06-28 18:24:00,87.1,56.7,29.63,NNW,335,9.6,26.8,36,0.00,,BKN250,0.00,VWS V14.01,2013-06-28 22:24:00,
2013-06-28 18:29:00,87.8,56.0,29.63,NW,325,12.5,17.4,34,0.00,,BKN250,0.00,VWS V14.01,2013-06-28 22:29:00,
2013-06-28 18:34:00,87.8,56.0,29.63,West,267,10.3,25.8,34,0.00,,BKN250,0.00,VWS V14.01,2013-06-28 22:34:00,
2013-06-28 18:39:00,87.1,55.3,29.63,West,279,5.9,16.9,34,0.00,,BKN250,0.00,VWS V14.01,2013-06-28 22:39:00,
2013-06-28 18:45:00,86.2,55.9,29.63,West,265,8.9,16.9,36,0.00,,BKN250,0.00,VWS V14.01,2013-06-28 22:45:00,
2013-06-28 18:50:00,86.7,56.4,29.63,NW,305,14.4,18.3,36,0.00,,BKN250,0.00,VWS V14.01,2013-06-28 22:50:00,
2013-06-28 18:55:00,87.8,56.0,29.63,WNW,292,5.9,7.5,34,0.00,,BKN250,0.00,VWS V14.01,2013-06-28 22:55:00,
2013-06-28 19:00:00,86.5,56.2,29.63,NW,319,4.4,5.6,36,0.00,,BKN250,0.00,VWS V14.01,2013-06-28 23:00:00,
2013-06-28 19:05:00,85.6,56.7,29.63,WNW,295,17.3,22.1,37,0.00,,BKN250,0.00,VWS V14.01,2013-06-28 23:05:00,
2013-06-28 19:11:00,86.0,57.0,29.66,WNW,297,8.9,11.3,37,0.00,,BKN250,0.00,VWS V14.01,2013-06-28 23:11:00,
2013-06-28 19:16:00,85.5,57.8,29.66,NW,312,5.2,18.3,39,0.00,,BKN250,0.00,VWS V14.01,2013-06-28 23:16:00,
2013-06-28 19:21:00,85.3,56.4,29.66,NW,307,9.6,13.2,37,0.00,,BKN250,0.00,VWS V14.01,2013-06-28 23:21:00,
2013-06-28 19:26:00,86.0,57.0,29.66,WNW,303,5.9,7.5,37,0.00,,BKN250,0.00,VWS V14.01,2013-06-28 23:26:00,
2013-06-28 19:31:00,84.7,57.1,29.66,West,275,6.6,12.2,39,0.00,,BKN250,0.00,VWS V14.01,2013-06-28 23:31:00,
2013-06-28 19:37:00,84.6,58.2,29.66,WNW,285,0.0,6.6,41,0.00,,BKN250,0.00,VWS V14.01,2013-06-28 23:37:00,
2013-06-28 19:42:00,84.7,59.5,29.63,WNW,303,8.1,10.3,42,0.00,,BKN250,0.00,VWS V14.01,2013-06-28 23:42:00,
2013-06-28 19:45:00,84.7,59.5,29.63,WNW,302,8.9,11.3,42,0.00,,BKN250,0.00,VWS V14.01,2013-06-28 23:45:00,
2013-06-28 19:50:00,84.4,60.2,29.63,NW,326,6.6,8.5,44,0.00,,BKN250,0.00,VWS V14.01,2013-06-28 23:50:00,
2013-06-28 19:55:00,84.9,59.6,29.63,NW,325,9.6,16.0,42,0.00,,BKN250,0.00,VWS V14.01,2013-06-28 23:55:00,
2013-06-28 20:00:00,85.3,58.8,29.63,WNW,283,4.4,8.5,41,0.00,,BKN250,0.00,VWS V14.01,2013-06-29 00:00:00,
2013-06-28 20:05:00,84.0,61.0,29.63,NNW,327,8.1,12.2,46,0.00,,BKN250,0.00,VWS V14.01,2013-06-29 00:05:00,
2013-06-28 20:10:00,84.0,61.0,29.66,West,277,3.7,7.5,46,0.00,,BKN250,0.00,VWS V14.01,2013-06-29 00:10:00,
2013-06-28 20:15:00,84.4,60.2,29.66,NW,313,6.6,8.5,44,0.00,,BKN250,0.00,VWS V14.01,2013-06-29 00:15:00,
2013-06-28 20:21:00,84.0,61.0,29.66,WNW,298,6.6,8.5,46,0.00,,BKN250,0.00,VWS V14.01,2013-06-29 00:21:00,
2013-06-28 20:26:00,84.0,62.0,29.63,NNW,344,8.9,13.2,48,0.00,,BKN250,0.00,VWS V14.01,2013-06-29 00:26:00,
2013-06-28 20:27:00,84.0,62.0,29.63,NW,312,5.2,6.6,48,0.00,,BKN250,0.00,VWS V14.01,2013-06-29 00:27:00,
2013-06-28 20:32:00,84.4,61.3,29.63,WNW,284,4.4,11.3,46,0.00,,BKN250,0.00,VWS V14.01,2013-06-29 00:32:00,
2013-06-28 20:38:00,83.7,62.7,29.63,West,276,5.2,8.5,49,0.00,,BKN250,0.00,VWS V14.01,2013-06-29 00:38:00,
2013-06-28 20:43:00,83.3,62.3,29.66,WNW,298,10.3,13.2,49,0.00,,BKN250,0.00,VWS V14.01,2013-06-29 00:43:00,
2013-06-28 20:48:00,82.0,62.1,29.66,NW,310,5.9,7.5,51,0.00,,BKN250,0.00,VWS V14.01,2013-06-29 00:48:00,
2013-06-28 20:53:00,81.7,61.8,29.66,NW,316,0.0,0.0,51,0.00,,BKN250,0.00,VWS V14.01,2013-06-29 00:53:00,
2013-06-28 20:59:00,80.8,61.0,29.66,WNW,292,4.4,7.5,51,0.00,,BKN250,0.00,VWS V14.01,2013-06-29 00:59:00,
2013-06-28 21:04:00,80.2,62.3,29.66,NW,307,6.6,8.5,54,0.00,,BKN250,0.00,VWS V14.01,2013-06-29 01:04:00,
2013-06-28 21:09:00,80.2,61.4,29.66,West,271,0.0,5.6,53,0.00,,BKN250,0.00,VWS V14.01,2013-06-29 01:09:00,
2013-06-28 21:14:00,80.1,61.2,29.66,WNW,292,5.2,6.6,53,0.00,,BKN250,0.00,VWS V14.01,2013-06-29 01:14:00,
2013-06-28 21:19:00,79.2,61.3,29.66,WNW,293,0.0,0.0,54,0.00,,BKN250,0.00,VWS V14.01,2013-06-29 01:19:00,
2013-06-28 21:25:00,78.6,61.7,29.66,WNW,293,0.0,0.0,56,0.00,,BKN250,0.00,VWS V14.01,2013-06-29 01:25:00,
2013-06-28 21:30:00,78.3,61.3,29.66,West,276,0.0,0.0,56,0.00,,BKN250,0.00,VWS V14.01,2013-06-29 01:30:00,
2013-06-28 21:35:00,77.5,60.7,29.66,West,281,0.0,0.0,56,0.00,,-RA,0.00,VWS V14.01,2013-06-29 01:35:00,
2013-06-28 21:40:00,77.2,61.2,29.66,WNW,284,0.0,0.0,58,0.00,,-RA,0.00,VWS V14.01,2013-06-29 01:40:00,
2013-06-28 21:46:00,77.4,60.5,29.66,West,272,5.2,6.6,56,0.00,,-RA,0.00,VWS V14.01,2013-06-29 01:46:00,
2013-06-28 21:51:00,77.7,60.8,29.66,NW,322,3.7,6.6,56,0.00,,-RA,0.00,VWS V14.01,2013-06-29 01:51:00,
2013-06-28 21:56:00,77.9,61.0,29.66,West,281,0.0,0.0,56,0.00,,-RA,0.00,VWS V14.01,2013-06-29 01:56:00,
2013-06-28 22:01:00,77.5,59.8,29.66,West,278,0.0,0.0,54,0.00,,-RA,0.00,VWS V14.01,2013-06-29 02:01:00,
2013-06-28 22:06:00,77.0,60.2,29.66,WNW,288,3.7,4.7,56,0.00,,-RA,0.00,VWS V14.01,2013-06-29 02:06:00,
2013-06-28 22:11:00,76.3,60.3,29.66,WNW,298,0.0,0.0,58,0.00,,-RA,0.00,VWS V14.01,2013-06-29 02:11:00,
2013-06-28 22:16:00,76.1,59.3,29.66,NNE,25,0.0,0.0,56,0.00,,-RA,0.00,VWS V14.01,2013-06-29 02:16:00,
2013-06-28 22:22:00,75.9,60.0,29.66,NNE,28,0.0,0.0,58,0.00,,-RA,0.00,VWS V14.01,2013-06-29 02:22:00,
2013-06-28 22:27:00,75.7,59.8,29.66,NNE,28,0.0,0.0,58,0.00,,-RA,0.00,VWS V14.01,2013-06-29 02:27:00,
2013-06-28 22:32:00,75.4,59.5,29.66,NNE,28,0.0,0.0,58,0.00,,-RA,0.00,VWS V14.01,2013-06-29 02:32:00,
2013-06-28 22:37:00,74.7,58.8,29.66,NE,39,0.0,0.0,58,0.00,,-RA,0.00,VWS V14.01,2013-06-29 02:37:00,
2013-06-28 22:42:00,74.1,59.1,29.66,NE,39,0.0,0.0,60,0.00,,-RA,0.00,VWS V14.01,2013-06-29 02:42:00,
2013-06-28 22:48:00,73.6,58.6,29.66,NE,39,0.0,0.0,60,0.00,,-RA,0.00,VWS V14.01,2013-06-29 02:48:00,
2013-06-28 22:53:00,73.2,59.1,29.66,NE,41,0.0,0.0,61,0.00,,-RA,0.00,VWS V14.01,2013-06-29 02:53:00,
2013-06-28 22:58:00,72.9,58.7,29.66,NE,39,0.0,0.0,61,0.00,,-RA,0.00,VWS V14.01,2013-06-29 02:58:00,
2013-06-28 23:03:00,75.0,62.3,29.66,North,357,19.6,27.7,65,0.00,,-RA,0.00,VWS V14.01,2013-06-29 03:03:00,
2013-06-28 23:09:00,73.4,62.9,29.66,NNW,331,8.9,12.2,70,0.00,,-RA,0.00,VWS V14.01,2013-06-29 03:09:00,
2013-06-28 23:14:00,72.5,63.4,29.69,North,357,5.2,12.2,73,0.00,,-RA,0.00,VWS V14.01,2013-06-29 03:14:00,
2013-06-28 23:19:00,72.3,63.9,29.69,WNW,293,6.6,8.5,75,0.00,,-RA,0.00,VWS V14.01,2013-06-29 03:19:00,
2013-06-28 23:24:00,72.1,63.7,29.69,WNW,293,5.2,8.5,75,0.00,,-RA,0.00,VWS V14.01,2013-06-29 03:24:00,
2013-06-28 23:29:00,72.0,63.5,29.69,North,357,5.2,6.6,75,0.00,,-RA,0.00,VWS V14.01,2013-06-29 03:29:00,
2013-06-28 23:34:00,72.0,64.8,29.69,North,353,4.4,5.6,78,0.00,,-RA,0.00,VWS V14.01,2013-06-29 03:34:00,
2013-06-28 23:39:00,72.0,65.4,29.69,North,357,0.0,0.0,80,0.00,,BKN140,0.00,VWS V14.01,2013-06-29 03:39:00,
2013-06-28 23:45:00,72.1,63.7,29.69,NNW,341,5.2,6.6,75,0.00,,BKN140,0.00,VWS V14.01,2013-06-29 03:45:00,
2013-06-28 23:50:00,72.1,65.0,29.69,NW,320,5.2,11.3,78,0.00,,BKN140,0.00,VWS V14.01,2013-06-29 03:50:00,
2013-06-28 23:55:00,72.7,64.2,29.69,North,0,0.0,4.7,75,0.00,,BKN140,0.00,VWS V14.01,2013-06-29 03:55:00,